Regional Weather Roundup
Issued by NWS

Home | Current Version | Previous Version | Graphics & Text | Print | Product List | Glossary On
Versions: 1 2 3 4 5 6 7 8 9 10 11 12 13 14 15 16 17 18 19 20 21 22 23 24 25 26 27 28 29 30 31 32 33 34 35 36 37 38 39 40 41 42 43 44 45 46 47 48 49 50
000
ASUS44 KMEG 260710
RWRTN
TENNESSEE HOURLY STATE WEATHER ROUNDUP
NATIONAL WEATHER SERVICE MEMPHIS TN
100 AM CST SUN FEB 26 2017

TNZ002-004-019-021-049-052-054-088>092-260800-
WEST TENNESSEE

CITY           SKY/WX    TMP DP  RH WIND       PRES   REMARKS
MEMPHIS INTL   PTCLDY    34  23  64 CALM      30.16R
NWS MEMPHIS      N/A     31 N/A N/A MISG        N/A
JACKSON        CLEAR     26  24  92 CALM      30.17R
UNION CITY     CLEAR     28  21  74 CALM      30.15S
PARIS          CLEAR     23  19  86 CALM      30.16S
HUNTINGDON     CLEAR     27  25  93 CALM      30.15S
$$

TNZ008-025-027-028-033-062-065-066-260800-
NORTH MIDDLE TENNESSEE

CITY           SKY/WX    TMP DP  RH WIND       PRES   REMARKS
NASHVILLE      CLEAR     33  19  56 CALM      30.17R
PORTLAND       CLEAR     28  23  80 CALM      30.16R
CLARKSVILLE    CLEAR     29  20  69 CALM      30.16S
SMYRNA         PTCLDY    29  23  78 E5        30.18R WCI  24
COOKEVILLE     CLEAR     25  23  93 CALM      30.13S
GALLATIN       CLEAR     28  21  74 CALM      30.19S
CROSSVILLE     CLEAR     27  18  69 NW3       30.10R
$$

TNZ061-075-076-078-094-096-097-260800-
SOUTH MIDDLE TENNESSEE

CITY           SKY/WX    TMP DP  RH WIND       PRES   REMARKS
FAYETTEVILLE   CLEAR     34  21  60 N5        30.14S WCI  30
TULLAHOMA      CLEAR     27  19  74 CALM      30.14S
WINCHESTER     CLEAR     28  23  80 CALM      30.15S
MCMINNVILLE    CLEAR     28  25  86 CALM      30.14S
COLUMBIA       CLEAR     28  28 100 S3        30.14R
SHELBYVILLE    CLEAR     28  27  93 CALM      30.16F
$$

TNZ017-018-042-046-047-260800-
NORTHEAST TENNESSEE

CITY           SKY/WX    TMP DP  RH WIND       PRES   REMARKS
TRI CITIES     CLEAR     30  18  60 W7        30.07F WCI  23
ELIZABETHTON   CLEAR     32  18  55 W5G12     30.06S WCI  27
$$

TNZ012-013-036-069-073-074-260800-
CENTRAL EAST TENNESSEE

CITY           SKY/WX    TMP DP  RH WIND       PRES   REMARKS
KNOXVILLE      CLEAR     35  22  58 N5        30.12R WCI  31
OAK RIDGE      CLEAR     31  22  69 CALM      30.15R
GATLINBURG     CLEAR     28  19  69 CALM      30.12R
MORRISTOWN     PTCLDY    32  19  59 CALM      30.10R
JACKSBORO      CLEAR     28  23  80 CALM      30.15R
$$

TNZ083-085-099-260800-
SOUTHEAST TENNESSEE

CITY           SKY/WX    TMP DP  RH WIND       PRES   REMARKS
CHATTANOOGA    CLEAR     36  21  54 NW5       30.15R WCI  32
$$

SKY/WX REPORTED AS FAIR MEANS FEW OR NO CLOUDS BELOW
12 THOUSAND FEET.




USA.gov is the U.S. government's official web portal to all federal, state and local government web resources and services.